Printer-friendly version
Follow the MPC on Twitter Follow the MPC on Facebook The MPC blog
Minor Planet Center

MPEC 2009-Y26 : 2008 CD22

The following Minor Planet Electronic Circular may be linked-to from your own Web pages, but must not otherwise be redistributed electronically.

A form allowing access to any MPEC is at the bottom of this page.


Read MPEC 2009-Y25 Read MPEC 2009-Y27


M.P.E.C. 2009-Y26                                Issued 2009 Dec. 19, 13:53 UT

     The Minor Planet Electronic Circulars contain information on unusual
         minor planets and routine data on comets.  They are published
   on behalf of Commission 20 of the International Astronomical Union by the
          Minor Planet Center, Smithsonian Astrophysical Observatory,
                          Cambridge, MA 02138, U.S.A.

             Prepared using the Tamkin Foundation Computer Network

                              MPC@CFA.HARVARD.EDU
          URL http://www.cfa.harvard.edu/iau/mpc.html  ISSN 1523-6714

                                   2008 CD22

                           Revision to MPEC 2008-C55

Additional Observations:
     K08C22D 2C2009 12 09.52577108 28 36.752-08 33 57.44         22.3 R EY026568
     K08C22D 2C2009 12 09.52797808 28 37.046-08 33 59.89         22.5 R EY026568
     K08C22D 2C2009 12 19.45801308 53 49.333-11 37 31.40         21.7 R EY026568
     K08C22D 2C2009 12 19.46688508 53 50.696-11 37 41.00         21.7 R EY026568

Observer details:
568 Mauna Kea.  Observers D. J. Tholen, M. Micheli, G. T. Elliott, M. Ishiguro.
    Measurer D. J. Tholen.  2.24-m University of Hawaii reflector.

First and last observations above in comparison with prediction:
Residuals in seconds of arc, reference and Delta-T
091209 568 59.4-  4.2-    091219 568 72.5-  4.3-    MPO140194   +0.0075 day

Orbital elements:
2008 CD22                                                Earth MOID = 0.0804 AU
Epoch 2010 Jan. 4.0 TT = JDT 2455200.5                  MPC
M 336.69504              (2000.0)            P               Q
n   0.49823932     Peri.    8.97289     -0.92277605     -0.37414511
a   1.5758349      Node   148.55365     +0.34167026     -0.90507160
e   0.3226763      Incl.   10.17871     +0.17817349     -0.20214062
P   1.98           H   22.2           G   0.15           U   0
Residuals in seconds of arc
080209 703  0.3-  0.6-    080213 046  0.0   0.2-    080227 H45  0.0   0.2+
080209 703  1.0-  1.1-    080213 046  0.9-  0.3+    080228 H45  0.4+  0.4+
080209 703  0.2-  0.5+    080213 046  0.3+  0.2-    080228 H45  0.0   0.3+
080209 703  1.0-  0.1-    080213 046  0.2+  0.7+    080228 H45  0.1-  0.1+
080209 673  0.0   0.0     080214 H55  0.2+  0.1+    080228 H45  0.3+  0.2+
080209 651  0.2-  0.1+    080214 H55  0.0   0.1-    080228 H45  0.0   0.1-
080209 651  0.1-  0.0     080214 H55  0.1+  0.0     080228 H45  0.1-  0.1-
080209 673  0.1+  0.2+    080214 703  0.0   0.2-    080228 703  0.9-  0.2+
080209 651  0.1-  0.2+    080214 703  0.4-  0.4+    080228 703  0.3-  0.0
080209 673  0.0   0.0     080214 703  0.1+  0.6+    080228 703  0.3-  0.3+
080209 673  0.0   0.2-    080214 703  0.1-  1.3+    080228 703  0.9-  0.0
080209 703  0.6-  0.2+    080215 A81  0.1+  0.2-    080229 703  0.5-  0.0
080209 703  0.5-  0.3+    080215 A81  0.1+  0.4-    080229 703  0.2-  0.3-
080209 703  0.3-  0.4+    080216 H55  0.2+  0.3+    080229 703  0.6-  0.1+
080209 703  0.6-  0.0     080216 H55  0.2+  0.3+    080229 703  0.1+  0.1-
080209 J66  0.2+  0.3+    080216 H55  0.1+  0.1+    080301 699  1.0-  0.8-
080209 J66  0.2-  0.0     080216 H55  0.1+  0.2+    080301 699  0.3-  0.3-
080209 J66  0.4-  0.4+    080216 H55  0.2+  0.3+    080301 699  0.1+  0.2-
080209 J66  0.3+  0.1-    080216 H55  0.1+  0.3+    080301 A48  0.2+  0.4-
080209 J66  0.4-  0.0     080216 246  0.1+  0.5+    080301 A48  0.4+  0.9+
080210 A80  0.5+  0.3+    080216 246  0.8+  0.3-    080302 A48  0.3+  0.8+
080210 A80  0.3+  0.1-    080216 246  0.2+  0.2-    080302 A48  0.7-  0.7+
080210 A80  0.6+  0.4-    080216 246  0.5+  0.3-    080302 A53  0.3+  0.6+
080210 130  0.2-  0.2+    080216 246  0.1-  0.5+    080302 A53  0.6+  0.2-
080210 130  0.6+  0.1-    080216 246  0.6+  0.2-    080302 A53  0.2+  1.0-
080210 130  0.3+  0.6+    080217 046  0.3+  0.2-    080305 H45  0.0   0.3-
080210 130  0.3-  0.2+    080217 046  0.9-  0.9+    080305 H45  0.3+  0.1-
080210 A48  0.1-  0.2+    080217 046  0.4+  0.1-    080305 H45  0.1-  0.5-
080210 A48  0.1-  0.1-    080217 046  0.2+  0.2-    080305 H45  0.3+  0.0
080210 A48  0.1+  0.3-    080217 046  0.8+  0.7+    080305 H45  1.0-  0.4-
080210 A48  1.0+  0.3-    080217 046  0.3-  0.0     080305 H45  0.3+  0.0
080210 012  0.1-  0.1+    080217 448  0.0   0.3+    080310 046  0.9-  0.5+
080210 012  0.0   0.1-    080217 448  0.4+  0.1-    080310 046  1.5-  0.0
080210 012  0.2-  0.3+    080217 448  0.1+  0.2+    080310 046  0.5+  0.2+
080210 012  0.4+  0.1+    080217 448  0.2+  0.2-    080310 046  0.9+  0.1-
080210 012  0.1-  0.2+    080223 H51  0.5-  0.6-    080310 046  0.1-  0.5+
080210 012  0.3-  0.2-    080223 H51  0.2+  0.0     080310 046  0.1-  0.2+
080211 704  0.4-  0.2-    080223 H51  0.2+  0.2+    080310 046  0.7+  0.4+
080211 704  0.1+  0.3+    080223 H51  0.4+  0.1+    080315 704  1.2+  0.1-
080211 704  0.2+  0.2-    080223 H51  0.0   0.2+    080315 704  0.1+  1.2+
080211 704  0.4+  0.9+    080223 H51  0.1+  0.1-    080315 704  0.1-  0.7+
080211 704  0.2-  0.2-    080223 H51  0.5+  0.3+    080315 704  0.6+  0.3+
080211 560  0.0   0.4+    080223 H51  0.5+  0.0     080315 704  0.1+  0.0
080211 560  0.0   0.4+    080223 H51  0.3+  0.0     080315 704  0.5+  0.7+
080211 A57  0.2+  1.9-    080223 H51  0.5+  0.1+    080315 704  0.9+  0.7+
080211 560  0.1-  0.3+    080223 H51  0.4+  0.3-    080315 704  0.9+  0.1+
080211 A57  0.8+  0.5-    080223 H51  0.4+  0.2+    080315 704  0.5-  0.8+
080211 A57  0.5+  1.2-    080223 H51  0.1+  0.5-    080324 H55  0.2-  0.1+
080212 046  0.4+  0.1+    080223 H51  0.4+  0.6+    080324 H55  0.2-  0.1+
080212 046  0.1+  0.2-    080223 H51  0.2+  0.4-    080324 H55  0.3-  0.1+
080212 046  0.2+  0.5+    080223 H51  0.3+  0.5+    080331 G96  0.0   0.1+
080212 046  0.3-  0.3+    080223 H51  0.1+  0.0     080331 G96  0.2-  0.2+
080212 046  0.5-  0.2-    080223 H51  0.1+  0.1-    080331 G96  0.0   0.1+
080212 046  0.2+  0.4-    080223 H51  0.1+  0.2-    080423 H55  0.6-  0.2-
080212 046  0.9-  0.2+    080223 H51  0.2+  0.2+    080423 H55  0.4-  0.3-
080212 046  0.6-  0.2+    080223 H51  0.1+  0.2-    080423 H55  0.4+  0.3+
080212 246  0.4-  0.4-    080223 H51  0.3+  0.2-    080510 H55  0.3-  0.0
080212 246  0.2-  0.2+    080223 H51  0.3-  0.1+    080510 H55  0.1-  0.2+
080212 246  0.1+  0.1-    080223 H51  0.4+  0.0     080510 H55  0.1-  0.3-
080212 246  0.0   0.1-    080223 H51  0.5+  0.4+    080522 H55  0.7-  0.2+
080212 246  0.6-  0.7-    080223 H51  0.1+  0.0     080522 H55  0.6-  0.2+
080213 A78  0.3-  0.6-    080223 H51  0.4+  0.4+    080522 H55  0.3-  0.2-
080213 A78  0.8-  1.0-    080224 A78  0.9-  1.8-    080529 H55  0.2-  0.5-
080213 A78  0.2-  1.0-    080224 A78  0.8-  1.6-    080529 H55  0.5-  0.0
080213 A78  0.7-  1.1-    080224 A78  1.1-  1.8-    080529 H55  0.6-  0.6-
080213 560  0.0   0.0     080227 H45  0.0   0.1-    091209 568  0.1+  0.0
080213 560  0.2+  0.2+    080227 H45  0.1+  0.2-    091209 568  0.0   0.1+
080213 560  0.4+  0.5+    080227 H45  0.0   0.1-    091219 568  0.0   0.0
080213 046  0.1-  0.5+    080227 H45  0.0   0.1-    091219 568  0.0   0.0
080213 046  0.0   0.3-    080227 H45  0.2-  0.1-
080213 046  0.3+  0.1-    080227 H45  0.0   0.0

Ephemeris:
2008 CD22                a,e,i = 1.58, 0.32, 10                  q = 1.0674
Date    TT    R. A. (2000) Decl.     Delta      r     Elong.  Phase     V
2009 12 15    08 42.14   -10 16.3    0.377    1.227   122.2    42.7    22.2
2009 12 25    09 09.40   -13 12.6    0.316    1.188   123.6    43.6    21.8
2010 01 04    09 41.96   -15 38.1    0.262    1.152   124.5    44.7    21.3
2010 01 14    10 22.72   -17 01.7    0.216    1.121   124.9    46.0    20.9
2010 01 24    11 14.62   -16 30.0    0.179    1.097   124.9    47.4    20.5
2010 02 03    12 18.08   -12 59.1    0.154    1.079   123.9    49.3    20.1
2010 02 13    13 26.44   -06 11.4    0.143    1.069   121.7    51.8    20.0
2010 02 23    14 27.99   +02 13.6    0.146    1.068   118.9    54.2    20.1
2010 03 05    15 15.27   +09 55.2    0.161    1.075   117.2    55.2    20.4
2010 03 15    15 47.28   +15 56.4    0.181    1.089   117.3    54.2    20.7
2010 03 25    16 05.97   +20 19.0    0.204    1.112   119.4    51.4    20.9
2010 04 04    16 13.93   +23 15.7    0.229    1.140   122.8    47.5    21.1
2010 04 14    16 13.21   +24 53.8    0.254    1.174   127.3    42.8    21.2
2010 04 24    16 06.11   +25 10.1    0.282    1.213   132.0    38.0    21.4
2010 05 04    15 55.60   +24 04.6    0.314    1.254   136.4    33.7    21.6
2010 05 14    15 44.46   +21 45.4    0.352    1.298   139.4    30.5    21.8
2010 05 24    15 35.19   +18 28.2    0.399    1.344   140.3    28.8    22.1
2010 06 03    15 29.31   +14 36.7    0.455    1.390   139.0    28.6    22.5

Timothy B. Spahr             (C) Copyright 2009 MPC           M.P.E.C. 2009-Y26

Read MPEC 2009-Y25 Read MPEC 2009-Y27


MPEC number:

Enter an MPEC number in one of the following forms:

  • 1997-B01 (the full form)
  • J97B01 (the packed version of the full form)
  • B01 (the abbreviated form)

Valid HTML 4.01!